{"data":{"norad_id":63770,"epoch":"2026-05-24T22:51:08.807328Z","epoch_age_seconds":86145,"freshness":"FRESH","line1":"1 63770U 25089V   26144.95218527  .00026211  00000+0  95760-3 0  9994","line2":"2 63770  43.0020 334.3089 0001589 272.8015  87.2655 15.27615600 60576","mean_motion":15.276156,"eccentricity":0.0001589,"inclination_deg":43.002,"raan_deg":334.3089,"arg_perigee_deg":272.8015,"mean_anomaly_deg":87.2655,"bstar":0.0009576,"rev_number":6057,"period_min":94.264551893814,"perigee_km":481.85227337043,"apogee_km":484.03272443518,"semimajor_km":6861.0794989028,"source":"CELESTRAK","updated_at":"2026-05-25T13:38:20.107177Z"}}